User: anonymous
Location: Unspecified
(0.0000°N, 0.0000°E)
Time: 22:19:48
(UTC+02:00)
Language:

NOAA 12 - Orbit

View from above orbital plane
View from above orbital plane
View from above satellite
View from above satellite

Ground track
Ground track

The orbit data is extracted from the following two-line orbital elements,

1 21263U 91032A   14204.51133365  .00000012  00000-0  23678-4 0  3512
2 21263 098.6620 230.9355 0014795 130.0475 357.2922 14.25671474205738
Epoch (UTC): 23 July 2014 12:16:19
Eccentricity: 0.0014795
inclination: 98.6620°
perigee height: 795 km
apogee height: 817 km
right ascension of ascending node: 230.9355°
argument of perigee: 130.0475°
revolutions per day: 14.25671474
mean anomaly at epoch: 357.2922°
orbit number at epoch: 20573

The dashed part of the orbit path shows where the satellite is in the earth's shadow,  

DLR